Weather History for KBVY - September, 2013

Change the Weather History Date:

Tuesday, September 17, 2013

  Actual Average Record
Temperature  
Mean Temperature 50 °F -  
Max Temperature 63 °F 70 °F 80 °F (2004)
Min Temperature 37 °F 51 °F 10 °F (1995)
Degree Days  
Heating Degree Days 15    
Moisture  
Dew Point 38 °F    
Average Humidity 64    
Maximum Humidity 86    
Minimum Humidity 38    
Precipitation  
Precipitation 0.00 in - - ()
Sea Level Pressure  
Sea Level Pressure 30.33 in    
Wind  
Wind Speed 6 mph (North)    
Max Wind Speed 13 mph    
Max Gust Speed 17 mph    
Visibility 10 miles    
Events      
Averages and records for this station are not official NWS values.
T = Trace of Precipitation, MM = Missing Value Source: NWS Daily Summary

Daily Weather History Graph

Daily Weather History Graph

Search for Another Location

Airport or City:

Trip Planner

Search our weather history database for the weather conditions in past years. The results will help you decide how hot, cold, wet, or windy it might be!

Date:

Astronomy

Sep. 17, 2013 Rise Set
Actual Time 6:25 AM EDT 6:49 PM EDT
Civil Twilight 5:57 AM EDT 7:17 PM EDT
Nautical Twilight 5:24 AM EDT 7:50 PM EDT
Astronomical Twilight 4:50 AM EDT 8:24 PM EDT
Moon 5:35 PM EDT (9/17) 4:14 AM EDT (9/17)
Length of Visible Light 13h 20m
Length of Day
12h 23m
Waxing Gibbous, 96% of the Moon is Illuminated
Sep 17
Waxing Gibbous
Sep 19
Full
Sep 26
Last Quarter
Oct 4
New
Oct 11
First Quarter

Hourly Weather History & Observations

Time (EDT) Temp. Windchill Dew Point Humidity Pressure Visibility Wind Dir Wind Speed Gust Speed Precip Events Conditions
12:53 AM 46.9 °F - 35.1 °F 63% 30.26 in 10.0 mi North 9.2 mph - N/A   Partly Cloudy
1:53 AM 45.0 °F 40.1 °F 34.0 °F 65% 30.27 in 10.0 mi North 9.2 mph - N/A   Partly Cloudy
2:53 AM 44.1 °F 39.5 °F 34.0 °F 68% 30.29 in 10.0 mi North 8.1 mph - N/A   Clear
3:53 AM 41.0 °F 37.1 °F 34.0 °F 76% 30.30 in 10.0 mi North 5.8 mph - N/A   Clear
4:53 AM 39.0 °F - 34.0 °F 82% 30.31 in 10.0 mi Calm Calm - N/A   Clear
5:53 AM 37.9 °F 35.5 °F 34.0 °F 86% 30.33 in 10.0 mi NNW 3.5 mph - N/A   Clear
6:53 AM 37.0 °F 32.4 °F 33.1 °F 86% 30.36 in 10.0 mi NNW 5.8 mph - N/A   Partly Cloudy
7:53 AM 45.0 °F 41.8 °F 37.0 °F 74% 30.38 in 10.0 mi North 5.8 mph - N/A   Partly Cloudy
8:53 AM 51.1 °F - 37.0 °F 59% 30.39 in 10.0 mi North 11.5 mph - N/A   Partly Cloudy
9:53 AM 53.1 °F - 35.1 °F 50% 30.40 in 10.0 mi North 12.7 mph - N/A   Partly Cloudy
10:53 AM 55.9 °F - 35.1 °F 45% 30.40 in 10.0 mi NE 10.4 mph - N/A   Partly Cloudy
11:53 AM 57.0 °F - 37.0 °F 47% 30.40 in 10.0 mi NNE 11.5 mph 17.3 mph N/A   Clear
12:53 PM 59.0 °F - 37.0 °F 44% 30.40 in 10.0 mi NNE 8.1 mph - N/A   Clear
1:53 PM 59.0 °F - 37.9 °F 46% 30.37 in 10.0 mi Variable 5.8 mph - N/A   Clear
2:53 PM 61.0 °F - 39.0 °F 44% 30.35 in 10.0 mi North 3.5 mph - N/A   Clear
3:53 PM 62.1 °F - 39.0 °F 43% 30.33 in 10.0 mi WNW 4.6 mph - N/A   Clear
4:53 PM 63.0 °F - 37.0 °F 38% 30.32 in 10.0 mi North 4.6 mph - N/A   Clear
5:53 PM 60.1 °F - 42.1 °F 51% 30.32 in 10.0 mi ESE 3.5 mph - N/A   Clear
6:53 PM 55.9 °F - 42.1 °F 60% 30.31 in 10.0 mi Calm Calm - N/A   Clear
7:53 PM 52.0 °F - 43.0 °F 71% 30.31 in 10.0 mi Calm Calm - N/A   Clear
8:53 PM 48.0 °F - 43.0 °F 83% 30.31 in 10.0 mi Calm Calm - N/A   Clear
9:53 PM 46.0 °F - 42.1 °F 86% 30.31 in 10.0 mi Calm Calm - N/A   Clear
10:53 PM 46.9 °F - 42.1 °F 83% 30.31 in 10.0 mi WSW 4.6 mph - N/A   Clear
11:53 PM 46.9 °F - 42.1 °F 83% 30.31 in 10.0 mi Calm Calm - N/A   Clear